Location: Newark
(45.2862°N, 9.8850°E)
Time: 05:39:13
(UTC+00:00)

N. Korean satellite - Pass Details

Date: 12 December 2019
Orbit: 454 x 508 km, 97.2° (Epoch: 20 January)

Event Time Altitude Azimuth Distance (km) Brightness Sun altitude
Rises 04:09:46 0° 32° (NNE) 2,537 10.5 -27.2°
Reaches altitude 10° 04:12:48 10° 61° (ENE) 1,639 9.9 -26.7°
Maximum altitude 04:14:31 13° 90° (E) 1,446 9.9 -26.4°
Drops below altitude 10° 04:16:14 10° 120° (ESE) 1,618 10.1 -26.1°
Sets 04:19:10 0° 149° (SSE) 2,475 10.7 -25.6°
